Location: Beneden-Haastrecht
(52.0012°N, 4.7557°E)
Time: 03:22:14
(UTC+00:00)

Cosmos 1408 - Pass Details

Date: 24 October 2020
Orbit: 470 x 492 km, 82.6° (Epoch: 27 November)

Event Time Altitude Azimuth Distance (km) Brightness Sun altitude
Rises 18:44:07 0° 348° (NNW) 2,549 6.5 -21.6°
Reaches altitude 10° 18:46:13 10° 348° (NNW) 1,668 5.5 -22.0°
Enters shadow 18:49:33 72° 320° (NW) 514 2.7 -22.5°
